Tracking 30743 objects as of 21-Jun-2025
HD Live streaming from Space Station
objects crossing your sky now

COSMOS 1275 DEB

Track COSMOS 1275 DEB now!
10-day predictions


NORAD ID: 14440
Int'l Code: 1981-053JK
Perigee: 943.7 km
Apogee: 1,112.8 km
Inclination: 82.9 °
Period: 105.6 minutes
Semi major axis: 7399 km
RCS: 0.017 m2 (small)
Launch date: June 4, 1981
Source: Commonwealth of Independent States (former USSR) (CIS)
Launch site: PLESETSK MISSILE AND SPACE COMPLEX (PKMTR)

Note: This is SATELLITE DEBRIS
Your satellite tracking list
Your tracking list is empty




NASA's NSSDC Master Catalog

Two Line Element Set (TLE):
1 14440U 81053JG  25171.25426280  .00000399  00000-0  46377-3 0  9996
2 14440  82.9204 100.5596 0114278 322.3962 190.3810 13.64031196164227
Source of the keplerian elements: AFSPC